Vertical_Velocity
0 1 -0 1 -2 -3 -2 -3 -4 -0 -0 -7 3 4 0 -1 -2 -0 -4 -0 -2 -2 -4 -2 2 2 1 4 1 1 -1 1 2 1 4 1 0 4
-3 1 -3 -3 -4 -2 -3 -3 -4 -7 -7 -0 -3 -7 2 0 -1 -2 -0 -0 3 -4 -4 -1 -2 0 1 4 1 3 4 3 4 1 1 2 3 1
0 2 -0 -1 -3 -1 -5 -4 -4 -3 -4 -9 -1 -2 0 -5 -6 -1 -2 -1 1 -0 -1 -0 -3 -1 0 -1 -0 -2 1 3 1 -3 1 0 5 -5
-0 1 -3 -2 -3 -2 -8 -4 -1 -6 -3 -5 5 -7 -5 -3 -1 -2 -3 -1 -3 -2 -1 2 -4 -0 2 2 3 1 -0 -0 3 -3 2 2 3 -2
-3 -2 -1 -3 -1 -3 -7 -3 -1 -6 -1 -1 3 -4 -1 -4 -2 -2 1 2 -2 -2 -1 2 -5 1 1 -0 1 3 0 -0 -0 0 2 0 2 1
-4 -4 -2 -3 -7 0 -2 1 3 -4 -6 2 -3 4 -6 1 -2 -2 -0 -1 -0 1 1 2 -1 2 2 2 -1 4 -3 3 7 0 5 2 6 2
0 0 -2 -5 -1 0 -6 -0 2 -3 -4 -3 -5 -0 -2 5 -2 -3 -1 -1 -1 -1 1 0 -0 -0 -0 1 -3 0 2 3 -1 -4 4 72 5 2
-1 -2 -0 -3 -0 -2 -3 2 -7 5 -6 1 -6 4 -10 -5 -0 -2 -0 -2 -3 -1 0 -1 1 -1 0 -0 0 -1 -0 2 2 3 2 -7 -0 1
-1 -4 -4 -4 -5 -2 -3 1 -3 -4 -2 3 -1 1 -0 -1 0 -1 -1 -1 -2 0 -1 -0 2 1 2 -0 0 2 2 -1 2 -1 -2 7 2 2
-3 -1 -1 3 -1 -2 1 -1 8 -3 -0 -6 7 -7 2 -3 1 -0 -1 -0 -2 -0 -1 -2 0 0 -1 -0 1 2 2 1 1 6 2 -1 1 0
-1 -2 -2 2 -3 -6 -3 -4 5 -1 -4 1 -4 -3 -0 -2 -0 -1 -1 -0 -1 -2 0 -1 -1 1 1 -0 1 1 2 2 1 -1 3 2 1 1
11 -3 4 -5 -5 2 -5 -8 7 4 0 0 -1 -1 1 -1 -1 -1 -1 0 0 -0 1 -1 2 -0 -0 -2 -3 0 0 -3 2 2 -0 1 6 1
2 -6 3 4 5 -4 3 -1 -1 2 1 -2 0 -0 -1 -3 -2 -0 1 1 -2 1 1 1 0 -1 1 0 -0 -1 0 0 1 0 -0 4 3 1
-4 3 -1 -6 9 3 -2 2 -3 -0 -0 0 0 -1 -2 -3 -1 -1 -1 -0 -1 1 1 1 1 1 2 0 -2 -2 -2 -2 -1 0 2 3 2 1
-7 -1 -3 3 7 5 1 -2 -5 -1 1 2 -0 -2 -2 -2 -1 -1 1 1 -1 1 1 1 1 1 -0 -0 0 0 -0 1 -0 0 3 3 2 2
-2 0 3 7 5 2 -3 -4 -2 0 1 1 -2 -1 -1 -1 -0 0 0 -1 -0 0 1 1 1 1 -0 -1 -0 0 0 -1 -1 1 -0 -1 1 1
0 2 5 2 1 0 -1 -3 -1 -1 -0 -0 -1 -1 -1 -0 1 0 1 -1 0 1 2 1 -0 1 1 0 0 -0 -0 -1 0 -0 -0 -0 -0 1
-0 3 2 1 0 -1 -2 -1 -1 1 0 -1 -0 0 0 1 -0 -1 0 1 0 1 0 1 1 1 0 0 -0 1 1 1 -0 -0 -0 0 -1 1
-1 2 0 -1 0 -1 -0 -1 -0 2 -1 -2 0 1 1 0 1 1 0 1 0 2 3 2 -0 -1 -2 -1 2 4 1 -0 -0 -1 0 1 0 4
-2 1 -0 1 1 1 0 -0 1 1 -1 1 0 1 1 2 2 0 0 -1 0 3 4 1 -2 -4 4 6 5 -2 -1 -4 -1 0 1 2 1 0
-3 -3 -1 -0 -0 0 1 0 0 0 1 0 -1 0 0 1 0 -0 1 1 2 1 1 -0 -2 2 -0 4 4 -3 -5 2 0 0 -0 2 -0 -0
1 0 -3 -2 1 3 2 1 0 0 1 1 -0 1 1 3 1 -0 0 0 -1 0 -1 -3 -1 -2 3 2 1 -3 -1 -5 2 -0 2 2 -1 0
-1 1 0 -0 -1 -1 0 1 1 0 0 1 1 1 0 1 0 0 0 0 0 1 -1 -2 -1 0 -0 4 -1 1 -0 -0 -5 -2 12 -3 -1 -2
Height
5767 5766 5766 5765 5764 5764 5762 5761 5759 5757 5754 5751 5747 5739 5735 5732 5728 5725 5722 5718 5715 5713 5709 5708 5706 5704 5703 5702 5702 5701 5701 5702 5702 5703 5707 5709 5710 5712
5759 5759 5757 5757 5756 5754 5752 5751 5749 5745 5743 5739 5735 5731 5726 5722 5718 5715 5711 5709 5705 5702 5700 5698 5696 5694 5694 5693 5692 5691 5691 5691 5693 5696 5698 5701 5703 5706
5750 5750 5749 5748 5746 5743 5743 5739 5737 5734 5732 5728 5725 5721 5718 5714 5710 5707 5704 5701 5698 5694 5692 5689 5687 5686 5685 5684 5683 5682 5682 5683 5684 5686 5690 5693 5697 5699
5742 5740 5740 5738 5737 5735 5733 5729 5725 5723 5721 5718 5718 5714 5710 5707 5702 5699 5696 5693 5690 5687 5684 5682 5679 5678 5677 5676 5675 5675 5674 5674 5676 5677 5682 5687 5691 5695
5731 5731 5730 5727 5727 5724 5721 5719 5714 5712 5710 5709 5708 5704 5701 5697 5694 5691 5687 5684 5681 5678 5675 5673 5671 5670 5669 5667 5667 5667 5667 5667 5669 5672 5675 5679 5684 5687
5721 5719 5718 5716 5714 5711 5709 5708 5706 5703 5702 5700 5697 5695 5692 5688 5686 5682 5678 5675 5672 5669 5667 5665 5662 5661 5660 5659 5658 5659 5660 5661 5663 5663 5666 5672 5676 5680
5708 5706 5705 5703 5701 5700 5699 5698 5696 5695 5692 5689 5687 5685 5683 5679 5675 5672 5669 5666 5662 5660 5657 5655 5654 5653 5652 5651 5650 5651 5652 5655 5657 5658 5661 5665 5668 5673
5696 5696 5693 5692 5690 5688 5687 5687 5685 5684 5682 5679 5677 5676 5672 5669 5666 5662 5659 5656 5653 5650 5647 5646 5646 5645 5644 5644 5643 5643 5644 5647 5649 5653 5655 5658 5661 5665
5684 5684 5683 5681 5681 5679 5677 5675 5674 5672 5671 5670 5668 5666 5661 5658 5656 5653 5650 5647 5644 5641 5639 5638 5637 5637 5636 5636 5636 5636 5636 5637 5640 5644 5647 5650 5654 5658
5672 5671 5672 5670 5669 5667 5666 5666 5662 5659 5660 5659 5656 5654 5652 5649 5647 5644 5641 5638 5635 5633 5632 5630 5629 5629 5629 5628 5627 5628 5628 5630 5635 5638 5640 5642 5647 5650
5661 5662 5660 5658 5658 5659 5658 5653 5652 5649 5648 5646 5645 5643 5642 5639 5637 5635 5632 5630 5627 5626 5625 5623 5622 5622 5621 5621 5620 5620 5622 5626 5628 5631 5634 5637 5641 5644
5649 5648 5648 5648 5647 5647 5647 5643 5640 5637 5636 5635 5634 5633 5631 5629 5627 5625 5623 5621 5619 5618 5617 5616 5616 5615 5615 5615 5614 5615 5618 5619 5623 5625 5627 5630 5634 5637
5637 5636 5636 5636 5635 5635 5633 5630 5628 5626 5624 5623 5622 5622 5621 5619 5618 5616 5614 5612 5611 5609 5609 5608 5608 5608 5608 5608 5607 5608 5611 5613 5616 5618 5621 5624 5627 5630
5624 5624 5624 5624 5620 5621 5620 5619 5617 5616 5614 5613 5613 5612 5611 5610 5608 5606 5605 5603 5601 5601 5601 5601 5601 5601 5601 5601 5601 5602 5604 5606 5609 5612 5615 5618 5620 5623
5612 5611 5611 5610 5610 5610 5609 5608 5607 5607 5605 5604 5603 5602 5601 5600 5598 5597 5596 5594 5594 5593 5593 5593 5594 5594 5594 5594 5594 5595 5597 5600 5603 5605 5608 5611 5614 5616
5600 5600 5600 5600 5600 5600 5599 5598 5597 5597 5596 5595 5594 5593 5592 5591 5589 5588 5587 5586 5586 5585 5585 5586 5586 5587 5586 5587 5587 5588 5591 5593 5596 5598 5600 5604 5607 5609
5590 5590 5591 5591 5591 5590 5588 5588 5587 5587 5587 5586 5585 5584 5583 5582 5581 5580 5579 5579 5578 5578 5578 5577 5577 5578 5579 5579 5580 5581 5583 5586 5588 5591 5594 5596 5598 5601
5581 5582 5582 5581 5581 5579 5579 5578 5578 5578 5577 5576 5575 5575 5574 5573 5573 5572 5572 5571 5570 5570 5569 5569 5569 5569 5570 5571 5572 5573 5575 5578 5580 5582 5584 5586 5588 5591
5572 5572 5572 5571 5571 5570 5569 5569 5569 5568 5567 5567 5566 5566 5565 5565 5564 5564 5564 5563 5563 5562 5562 5561 5562 5562 5563 5563 5565 5566 5568 5569 5571 5572 5574 5576 5578 5580
5561 5561 5561 5561 5560 5560 5559 5559 5559 5558 5558 5557 5556 5556 5556 5556 5555 5555 5555 5555 5555 5555 5554 5554 5554 5554 5555 5557 5557 5557 5558 5559 5560 5562 5563 5565 5566 5567
5550 5550 5550 5550 5550 5549 5549 5548 5548 5547 5547 5547 5546 5546 5546 5545 5545 5545 5545 5545 5546 5546 5546 5545 5545 5546 5547 5547 5547 5547 5547 5549 5550 5551 5552 5553 5554 5555
5539 5539 5539 5538 5538 5539 5538 5538 5537 5536 5536 5536 5536 5535 5535 5536 5535 5535 5536 5535 5535 5535 5535 5535 5535 5535 5536 5536 5536 5536 5536 5537 5538 5539 5540 5541 5542 5542
5527 5527 5528 5527 5527 5526 5526 5526 5526 5525 5525 5525 5525 5525 5525 5525 5524 5524 5524 5524 5523 5523 5522 5522 5522 5522 5522 5523 5523 5523 5524 5524 5525 5525 5527 5527 5528 5530